This is the latest recevied weather packets stored in our database for station/object N4NVD-13. If no packets are shown the sender has not sent any weather packets the latest 10 day(s).
| Time | Temp. | Humidity | Pressure | Rain* | Wind** | Luminosity | Snow |
|---|---|---|---|---|---|---|---|
| 1777790322 | 10.56° C | 99% | 1020.7 hPa | 0 mm | - | 0 W/m² | - |
| 1777790020 | 10.56° C | 99% | 1020.7 hPa | 0 mm | - | 0 W/m² | - |
| 1777789718 | 11.11° C | 99% | 1020.4 hPa | 0 mm | - | 0 W/m² | - |
| 1777789417 | 11.11° C | 99% | 1020.6 hPa | 0 mm | - | 0 W/m² | - |
| 1777789114 | 11.11° C | 99% | 1020.6 hPa | 0 mm | - | 0 W/m² | - |
| 1777788810 | 11.11° C | 99% | 1020.6 hPa | 0 mm | - | 0 W/m² | - |
| 1777788506 | 11.11° C | 99% | 1020.4 hPa | 0 mm | - | 0 W/m² | - |
| 1777788201 | 11.11° C | 99% | 1020.7 hPa | 0 mm | - | 0 W/m² | - |
| 1777787896 | 11.11° C | 99% | 1020.7 hPa | 0 mm | - | 0 W/m² | - |
| 1777787593 | 11.11° C | 99% | 1020.8 hPa | 0 mm | - | 0 W/m² | - |
| 1777787289 | 11.67° C | 99% | 1020.5 hPa | 0 mm | - | 0 W/m² | - |
| 1777786984 | 11.67° C | 99% | 1020.7 hPa | 0 mm | - | 0 W/m² | - |
| 1777786682 | 11.67° C | 99% | 1020.6 hPa | 0 mm | - | 0 W/m² | - |
| 1777786381 | 11.11° C | 99% | 1020.6 hPa | 0 mm | - | 0 W/m² | - |
| 1777786076 | 11.11° C | 99% | 1020.7 hPa | 0 mm | - | 0 W/m² | - |
| 1777785774 | 11.67° C | 99% | 1020.7 hPa | 0 mm | - | 0 W/m² | - |
| 1777785468 | 11.67° C | 99% | 1020.7 hPa | 0 mm | - | 0 W/m² | - |
| 1777785166 | 11.67° C | 99% | 1020.8 hPa | 0 mm | - | 0 W/m² | - |
| 1777784862 | 11.67° C | 99% | 1020.7 hPa | 0 mm | - | 0 W/m² | - |
| 1777784553 | 12.22° C | 99% | 1020.7 hPa | 0 mm | - | 0 W/m² | - |
| 1777784251 | 11.67° C | 99% | 1020.5 hPa | 0 mm | - | 0 W/m² | - |
| 1777783949 | 11.67° C | 99% | 1020.6 hPa | 0 mm | - | 0 W/m² | - |
| 1777783644 | 12.22° C | 99% | 1020.3 hPa | 0 mm | - | 0 W/m² | - |
| 1777783342 | 12.22° C | 99% | 1020.5 hPa | 0 mm | - | 0 W/m² | - |
| 1777783039 | 12.22° C | 99% | 1020.5 hPa | 0 mm | - | 0 W/m² | - |
* Rain latest hour (hover to see other rain measurements)
** Current wind speed in m/s (hover to see current wind gust speed)